Waupaca, WI

5:59 PM CST on January 16, 2018 (GMT -0600)
Waupaca Municipal

Weather History for KPCZ - October, 2011

Change the Weather History Date:

Thursday, October 20, 2011

  Actual Average Record
Temperature  
Mean Temperature 44 °F -  
Max Temperature 46 °F 56 °F 85 °F (1953)
Min Temperature 42 °F 34 °F 21 °F (1952)
Degree Days  
Heating Degree Days 21    
Moisture  
Dew Point 32 °F    
Average Humidity 64    
Maximum Humidity 70    
Minimum Humidity 57    
Precipitation  
Precipitation 0.00 in - - ()
Sea Level Pressure  
Sea Level Pressure 29.73 in    
Wind  
Wind Speed 14 mph (NNW)    
Max Wind Speed 18 mph    
Max Gust Speed 31 mph    
Visibility 10 miles    
Events      
Averages and records for this station are not official NWS values.
T = Trace of Precipitation, MM = Missing Value Source: NWS Daily Summary

Daily Weather History Graph

Daily Weather History Graph

Search for Another Location

Airport or City:

Trip Planner

Search our weather history database for the weather conditions in past years. The results will help you decide how hot, cold, wet, or windy it might be!

Date:

Astronomy

Oct. 20, 2011 Rise Set
Actual Time 7:17 AM CDT 6:03 PM CDT
Civil Twilight 6:47 AM CDT 6:33 PM CDT
Nautical Twilight 6:13 AM CDT 7:07 PM CDT
Astronomical Twilight 5:40 AM CDT 7:40 PM CDT
Moon No Moon Rise 2:27 PM CDT (10/20)
Length of Visible Light 11h 45m
Length of Day
10h 46m
Last Quarter, 44% of the Moon is Illuminated
Oct 20
Last Quarter
Oct 26
New
Nov 2
First Quarter
Nov 10
Full
Nov 18
Last Quarter

Hourly Weather History & Observations

Time (CDT) Temp. Windchill Dew Point Humidity Pressure Visibility Wind Dir Wind Speed Gust Speed Precip Events Conditions
12:15 AM 42.8 °F 35.8 °F 32.0 °F 66% 29.78 in 10.0 mi North 13.8 mph 24.2 mph N/A   Scattered Clouds
12:35 AM 42.8 °F 34.5 °F 32.0 °F 66% 29.77 in 10.0 mi North 18.4 mph 26.5 mph N/A   Scattered Clouds
12:55 AM 42.8 °F 36.6 °F 32.0 °F 66% 29.76 in 10.0 mi North 11.5 mph 18.4 mph N/A   Mostly Cloudy
1:15 AM 42.8 °F 36.2 °F 32.0 °F 66% 29.76 in 10.0 mi North 12.7 mph 17.3 mph N/A   Overcast
1:35 AM 42.8 °F 36.2 °F 32.0 °F 66% 29.75 in 10.0 mi NNW 12.7 mph 18.4 mph N/A   Overcast
1:55 AM 42.8 °F 36.6 °F 32.0 °F 66% 29.73 in 10.0 mi NNW 11.5 mph - N/A   Mostly Cloudy
2:15 AM 42.8 °F 37.0 °F 32.0 °F 66% 29.73 in 10.0 mi NNW 10.4 mph - N/A   Mostly Cloudy
2:35 AM 42.8 °F 35.8 °F 32.0 °F 66% 29.71 in 10.0 mi NNW 13.8 mph 18.4 mph N/A   Overcast
2:55 AM 42.8 °F 35.8 °F 32.0 °F 66% 29.71 in 10.0 mi North 13.8 mph 17.3 mph N/A   Overcast
3:15 AM 42.8 °F 35.4 °F 32.0 °F 66% 29.70 in 10.0 mi NNW 15.0 mph 23.0 mph N/A   Overcast
3:35 AM 42.8 °F 36.2 °F 32.0 °F 66% 29.70 in 10.0 mi NNW 12.7 mph 20.7 mph N/A   Overcast
3:55 AM 42.8 °F 36.6 °F 32.0 °F 66% 29.71 in 10.0 mi NNW 11.5 mph 16.1 mph N/A   Overcast
4:15 AM 42.8 °F 35.4 °F 32.0 °F 66% 29.70 in 10.0 mi NNW 15.0 mph 20.7 mph N/A   Mostly Cloudy
4:35 AM 42.8 °F 35.8 °F 32.0 °F 66% 29.70 in 10.0 mi North 13.8 mph 19.6 mph N/A   Overcast
5:15 AM 42.8 °F 35.1 °F 32.0 °F 66% 29.69 in 10.0 mi North 16.1 mph 21.9 mph N/A   Overcast
5:35 AM 42.8 °F 35.8 °F 32.0 °F 66% 29.69 in 10.0 mi NNW 13.8 mph 20.7 mph N/A   Overcast
5:55 AM 42.8 °F 35.4 °F 32.0 °F 66% 29.69 in 10.0 mi NNW 15.0 mph 26.5 mph N/A   Overcast
6:15 AM 42.8 °F 36.6 °F 32.0 °F 66% 29.69 in 10.0 mi NNW 11.5 mph 23.0 mph N/A   Overcast
6:35 AM 42.8 °F 35.1 °F 32.0 °F 66% 29.68 in 10.0 mi North 16.1 mph 24.2 mph N/A   Overcast
6:55 AM 42.8 °F 36.2 °F 32.0 °F 66% 29.68 in 10.0 mi NNW 12.7 mph 21.9 mph N/A   Overcast
7:15 AM 42.8 °F 36.2 °F 32.0 °F 66% 29.68 in 10.0 mi North 12.7 mph 24.2 mph N/A   Overcast
7:35 AM 42.8 °F 35.8 °F 32.0 °F 66% 29.68 in 10.0 mi North 13.8 mph 26.5 mph N/A   Overcast
7:55 AM 42.8 °F 34.5 °F 32.0 °F 66% 29.68 in 10.0 mi NNW 18.4 mph 24.2 mph N/A   Overcast
8:15 AM 42.8 °F 35.1 °F 32.0 °F 66% 29.68 in 10.0 mi North 16.1 mph 21.9 mph N/A   Overcast
8:35 AM 42.8 °F 35.8 °F 32.0 °F 66% 29.68 in 10.0 mi North 13.8 mph 25.3 mph N/A   Overcast
8:55 AM 42.8 °F 34.8 °F 32.0 °F 66% 29.68 in 10.0 mi NNW 17.3 mph 27.6 mph N/A   Overcast
9:15 AM 42.8 °F 35.4 °F 32.0 °F 66% 29.68 in 10.0 mi North 15.0 mph 23.0 mph N/A   Overcast
9:35 AM 42.8 °F 35.8 °F 32.0 °F 66% 29.69 in 10.0 mi NNW 13.8 mph 29.9 mph N/A   Overcast
9:55 AM 42.8 °F 35.1 °F 32.0 °F 66% 29.69 in 10.0 mi North 16.1 mph 31.1 mph N/A   Overcast
10:15 AM 42.8 °F 35.4 °F 32.0 °F 66% 29.70 in 10.0 mi NNW 15.0 mph 25.3 mph N/A   Overcast
10:35 AM 42.8 °F 35.1 °F 32.0 °F 66% 29.69 in 10.0 mi NNW 16.1 mph 24.2 mph N/A   Overcast
10:55 AM 44.6 °F 37.8 °F 32.0 °F 61% 29.70 in 10.0 mi North 15.0 mph 24.2 mph N/A   Overcast
11:15 AM 44.6 °F 37.4 °F 32.0 °F 61% 29.70 in 10.0 mi NNW 16.1 mph 21.9 mph N/A   Overcast
11:35 AM 42.8 °F 35.8 °F 32.0 °F 66% 29.71 in 10.0 mi North 13.8 mph 24.2 mph N/A   Overcast
11:55 AM 44.6 °F 38.4 °F 32.0 °F 61% 29.71 in 10.0 mi North 12.7 mph 20.7 mph N/A   Overcast
12:15 PM 44.6 °F 38.4 °F 32.0 °F 61% 29.71 in 10.0 mi NNW 12.7 mph 21.9 mph N/A   Overcast
12:35 PM 44.6 °F 37.4 °F 32.0 °F 61% 29.70 in 10.0 mi NNW 16.1 mph 24.2 mph N/A   Overcast
12:55 PM 44.6 °F 38.1 °F 32.0 °F 61% 29.70 in 10.0 mi North 13.8 mph 21.9 mph N/A   Overcast
1:35 PM 46.4 °F 39.8 °F 32.0 °F 57% 29.70 in 10.0 mi NW 16.1 mph 24.2 mph N/A   Overcast
1:55 PM 44.6 °F 37.8 °F 32.0 °F 61% 29.70 in 10.0 mi NNW 15.0 mph 23.0 mph N/A   Overcast
2:15 PM 44.6 °F 38.1 °F 32.0 °F 61% 29.71 in 10.0 mi NNW 13.8 mph 20.7 mph N/A   Overcast
2:35 PM 46.4 °F 41.9 °F 32.0 °F 57% 29.71 in 10.0 mi NNW 9.2 mph - N/A   Overcast
3:15 PM 46.4 °F 39.8 °F 32.0 °F 57% 29.71 in 10.0 mi NNW 16.1 mph 25.3 mph N/A   Overcast
3:35 PM 46.4 °F 41.1 °F 32.0 °F 57% 29.72 in 10.0 mi NNW 11.5 mph 21.9 mph N/A   Overcast
3:55 PM 46.4 °F 40.4 °F 32.0 °F 57% 29.73 in 10.0 mi NW 13.8 mph 20.7 mph N/A   Overcast
4:15 PM 46.4 °F 39.2 °F 32.0 °F 57% 29.74 in 10.0 mi NNW 18.4 mph 25.3 mph N/A   Overcast
4:35 PM 46.4 °F 41.9 °F 32.0 °F 57% 29.75 in 10.0 mi NNW 9.2 mph 19.6 mph N/A   Overcast
4:55 PM 46.4 °F 40.1 °F 32.0 °F 57% 29.76 in 10.0 mi NNW 15.0 mph 20.7 mph N/A   Overcast
5:15 PM 46.4 °F 40.1 °F 33.8 °F 62% 29.77 in 10.0 mi NW 15.0 mph 21.9 mph N/A   Overcast
5:35 PM 44.6 °F 38.8 °F 33.8 °F 66% 29.78 in 10.0 mi NW 11.5 mph 20.7 mph N/A   Overcast
5:55 PM 44.6 °F 38.8 °F 33.8 °F 66% 29.79 in 10.0 mi NW 11.5 mph 18.4 mph N/A   Overcast
6:35 PM 44.6 °F 38.8 °F 33.8 °F 66% 29.80 in 10.0 mi NW 11.5 mph 17.3 mph N/A   Overcast
7:15 PM 44.6 °F 38.4 °F 32.0 °F 61% 29.82 in 10.0 mi NNW 12.7 mph 19.6 mph N/A   Overcast
7:55 PM 44.6 °F 37.2 °F 32.0 °F 61% 29.83 in 10.0 mi NNW 17.3 mph 23.0 mph N/A   Mostly Cloudy
8:15 PM 44.6 °F 39.7 °F 32.0 °F 61% 29.84 in 10.0 mi NNW 9.2 mph 20.7 mph N/A   Scattered Clouds
8:35 PM 42.8 °F 36.2 °F 32.0 °F 66% 29.85 in 10.0 mi NNW 12.7 mph 18.4 mph N/A   Mostly Cloudy
8:55 PM 42.8 °F 38.0 °F 32.0 °F 66% 29.85 in 10.0 mi NNW 8.1 mph - N/A   Overcast
9:15 PM 42.8 °F 38.6 °F 33.8 °F 70% 29.86 in 10.0 mi NNW 6.9 mph - N/A   Overcast
9:35 PM 42.8 °F 37.5 °F 33.8 °F 70% 29.87 in 10.0 mi NNW 9.2 mph - N/A   Overcast
9:55 PM 42.8 °F 37.0 °F 33.8 °F 70% 29.88 in 10.0 mi NNW 10.4 mph - N/A   Overcast
10:15 PM 42.8 °F 35.8 °F 32.0 °F 66% 29.88 in 10.0 mi NNW 13.8 mph 18.4 mph N/A   Overcast
10:35 PM 42.8 °F 38.0 °F 32.0 °F 66% 29.88 in 10.0 mi NNW 8.1 mph - N/A   Overcast
10:55 PM 42.8 °F 37.5 °F 32.0 °F 66% 29.88 in 10.0 mi NNW 9.2 mph - N/A   Overcast
11:15 PM 42.8 °F 38.0 °F 32.0 °F 66% 29.88 in 10.0 mi NNW 8.1 mph - N/A   Overcast
11:35 PM 42.8 °F 38.0 °F 32.0 °F 66% 29.89 in 10.0 mi NNW 8.1 mph - N/A   Overcast
11:55 PM 42.8 °F 38.6 °F 32.0 °F 66% 29.89 in 10.0 mi NW 6.9 mph - N/A   Overcast